CAPE
0 0 0 0 0 0 0 0 0 0 0 0 0 0 0 0 0 0 0 48 89 127 225 287 377 612 431 431 121 264 347 406 340 342 325 340 257 168 77 97 176 223 202 476
0 0 0 0 0 0 0 0 0 0 0 0 0 0 0 0 0 0 0 3 13 203 212 238 380 645 481 474 249 224 238 280 333 302 232 111 59 168 248 264 186 270 509 562
0 0 0 0 0 0 0 0 0 0 0 0 0 0 0 50 92 5 91 23 40 213 196 114 435 829 903 571 475 378 301 254 294 242 215 252 240 239 230 300 388 581 321 17
0 0 0 0 0 0 0 0 0 0 0 0 0 0 0 3 125 162 278 162 112 243 247 198 273 762 680 701 583 486 378 353 347 349 329 320 411 395 427 604 429 22 0 0
0 0 0 0 0 0 0 0 0 0 0 0 0 0 0 9 163 68 141 298 238 246 256 225 313 435 529 753 679 670 639 579 535 524 663 768 705 466 180 12 0 0 0 0
0 0 0 0 0 0 0 0 0 0 0 0 0 0 0 5 45 108 153 285 383 299 332 312 341 442 582 568 515 627 697 743 757 749 725 445 48 0 0 0 0 0 0 0
0 0 0 0 0 0 0 0 0 0 0 0 0 0 0 0 0 0 4 392 605 611 484 383 450 469 582 587 573 598 561 608 627 383 46 9 0 0 0 0 0 0 0 0
0 0 0 0 0 0 0 0 0 0 0 0 0 0 0 0 129 78 1 242 610 725 604 525 456 507 593 615 576 396 202 258 60 9 3 0 0 0 0 0 0 0 0 0
0 0 0 0 0 0 0 0 0 0 0 0 0 0 0 4 228 49 66 242 549 684 727 676 639 683 703 466 407 14 25 0 0 0 0 0 0 0 0 0 0 0 0 0
0 0 0 0 0 0 0 0 0 0 0 0 0 0 0 0 3 348 295 336 440 585 560 462 325 277 359 359 0 0 0 0 0 0 0 0 0 0 0 0 0 0 0 0
0 0 0 0 0 0 0 0 0 0 0 0 0 0 0 0 0 137 342 363 489 574 627 855 892 646 90 0 0 0 0 0 0 0 0 0 0 0 0 0 0 0 0 0
0 0 0 0 0 0 0 0 0 0 0 0 0 0 0 0 0 29 329 467 517 517 886 980 635 0 0 0 0 0 0 0 0 0 0 0 0 0 0 0 0 0 0 0
0 0 0 0 0 0 0 0 0 0 0 0 0 0 0 0 0 22 340 622 675 660 974 677 75 0 0 0 0 0 0 0 0 0 0 0 0 0 0 0 0 0 0 0
0 0 0 0 0 0 0 0 0 0 0 0 0 0 0 0 3 34 235 674 893 939 890 595 11 0 0 3 33 7 0 2 0 0 0 0 0 0 0 0 0 0 0 0
0 0 0 0 0 0 0 0 0 0 0 0 0 0 0 0 4 48 163 535 984 1012 862 517 41 20 34 14 32 1 5 0 0 0 0 0 0 0 0 0 0 0 0 0
0 0 0 0 0 0 0 0 0 0 0 0 0 0 0 0 0 0 55 269 696 799 769 250 67 31 26 15 17 51 40 0 0 0 0 0 0 0 0 0 0 0 0 0
0 0 0 0 0 0 0 0 0 0 0 0 0 0 0 0 0 0 25 154 271 438 392 269 131 58 43 27 74 29 0 0 0 0 0 0 0 0 0 0 0 0 0 0
0 0 0 0 0 0 0 0 0 0 0 0 0 0 0 0 0 0 4 107 197 338 389 316 132 80 14 75 44 0 0 0 0 0 0 0 0 0 0 0 0 0 0 0
0 0 0 0 0 0 0 0 0 0 0 0 0 0 0 81 66 46 53 128 149 237 301 328 200 55 63 156 35 0 0 0 0 0 0 0 0 0 0 0 0 0 0 0
0 0 0 0 0 0 0 0 4 1 0 0 0 0 71 207 149 99 220 164 257 312 346 361 151 16 80 155 88 18 0 0 0 0 0 0 0 0 0 0 0 0 0 0
0 0 0 0 0 0 0 0 0 0 0 0 10 9 131 255 164 79 190 246 368 422 445 395 141 56 137 120 72 0 0 0 0 0 0 0 0 0 0 0 0 0 0 0
0 0 0 0 0 0 0 0 0 0 0 2 84 85 136 249 177 235 221 325 426 437 391 386 221 139 141 80 11 0 0 0 0 0 0 0 0 0 0 0 0 0 0 0
0 4 0 0 0 0 0 0 0 0 0 10 83 163 160 213 206 224 296 404 439 424 417 317 212 245 142 46 0 0 0 0 0 0 0 0 0 0 0 0 0 0 0 0
0 0 0 8 0 0 0 0 0 0 0 1 113 197 215 306 269 264 343 445 488 479 249 269 263 157 39 0 0 0 0 0 0 0 0 0 0 0 0 0 0 0 0 0
0 0 0 0 0 0 0 4 0 0 0 128 183 348 343 372 341 315 355 495 505 337 316 198 80 9 0 0 0 0 0 0 0 0 0 0 0 0 0 0 0 0 0 0
0 0 0 0 0 0 0 0 0 15 109 270 283 382 403 433 418 290 214 365 290 227 95 12 2 0 0 0 0 0 0 0 0 0 0 0 0 0 0 0 0 0 0 0
CIN
-0 -0 -0 -0 -0 -0 -0 -0 -0 -0 -0 -0 -0 -0 -0 -0 -0 -0 -0 -251 -168 -206 -198 -143 -748 -638 -541 -43 -33 -58 -155 -108 -86 -105 -128 -98 -86 -128 -105 -69 -49 -62 -44 -0
-0 -0 -0 -0 -0 -0 -0 -0 -0 -0 -0 -0 -0 -0 -0 -0 -0 -0 -0 -272 -123 -601 -634 -122 -524 -566 -472 -37 -160 -450 -317 -171 -112 -79 -104 -63 -185 -77 -64 -57 -60 -23 -0 -0
-0 -0 -0 -0 -0 -0 -0 -0 -0 -0 -0 -0 -0 -0 -0 -396 -551 -382 -708 -509 -465 -520 -595 -243 -497 -473 -443 -429 -20 -317 -211 -157 -26 -85 -122 -119 -83 -84 -77 -47 -11 -0 -2 -49
-0 -0 -0 -0 -0 -0 -0 -0 -0 -0 -0 -0 -0 -0 -0 -86 -361 -537 -639 -597 -608 -543 -447 -259 -62 -430 -385 -366 -358 -337 -233 -217 -187 -153 -104 -96 -64 -64 -26 -5 -0 -3 -0 -0
-0 -0 -0 -0 -0 -0 -0 -0 -0 -0 -0 -0 -0 -0 -0 -81 -203 -197 -402 -605 -569 -535 -441 -297 -167 -41 -113 -344 -310 -268 -209 -175 -145 -90 -61 -35 -26 -7 -70 -152 -0 -0 -0 -0
-0 -0 -0 -0 -0 -0 -0 -0 -0 -0 -0 -0 -0 -0 -0 -41 -213 -223 -351 -378 -480 -507 -456 -295 -205 -115 -51 -28 -308 -271 -193 -149 -129 -87 -45 -45 -230 -0 -0 -0 -0 -0 -0 -0
-0 -0 -0 -0 -0 -0 -0 -0 -0 -0 -0 -0 -0 -0 -0 -0 -0 -0 -128 -267 -279 -174 -70 -215 -421 -130 -53 -37 -306 -250 -213 -189 -152 -182 -360 -401 -0 -0 -0 -0 -0 -0 -0 -0
-0 -0 -0 -0 -0 -0 -0 -0 -0 -0 -0 -0 -0 -0 -0 -0 -386 -472 -36 -361 -171 -142 -76 -52 -66 -81 -71 -65 -59 -192 -389 -324 -422 -504 -363 -0 -0 -0 -0 -0 -0 -0 -0 -0
-0 -0 -0 -0 -0 -0 -0 -0 -0 -0 -0 -0 -0 -0 -0 -132 -391 -549 -498 -351 -207 -125 -85 -76 -89 -100 -79 -95 -243 -578 -513 -229 -0 -0 -0 -0 -0 -0 -0 -0 -0 -0 -0 -0
-0 -0 -0 -0 -0 -0 -0 -0 -0 -0 -0 -0 -0 -0 -0 -0 -108 -385 -390 -289 -239 -177 -120 -116 -136 -147 -368 -257 -0 -0 -0 -0 -0 -0 -0 -0 -0 -0 -0 -0 -0 -0 -0 -0
-0 -0 -0 -0 -0 -0 -0 -0 -0 -0 -0 -0 -0 -0 -0 -0 -0 -468 -362 -308 -211 -164 -404 -319 -243 -228 -310 -0 -0 -0 -0 -0 -0 -0 -0 -0 -0 -0 -0 -0 -0 -0 -0 -0
-0 -0 -0 -0 -0 -0 -0 -0 -0 -0 -0 -0 -0 -0 -0 -0 -0 -457 -359 -292 -169 -83 -297 -244 -257 -64 -0 -0 -0 -0 -0 -0 -0 -0 -0 -0 -0 -0 -0 -0 -0 -0 -0 -0
-0 -0 -0 -0 -0 -0 -0 -0 -0 -0 -0 -0 -0 -0 -0 -0 -0 -454 -343 -248 -120 -133 -265 -292 -396 -0 -0 -0 -10 -14 -0 -0 -0 -0 -0 -0 -0 -0 -0 -0 -0 -0 -0 -0
-0 -0 -0 -0 -0 -0 -0 -0 -0 -0 -0 -0 -0 -0 -0 -0 -59 -357 -332 -219 -146 -197 -254 -269 -10 -0 -0 -23 -39 -52 -0 -32 -0 -0 -0 -0 -0 -0 -0 -0 -0 -0 -0 -0
-0 -0 -0 -0 -0 -0 -0 -0 -0 -0 -0 -0 -0 -0 -0 -0 -145 -180 -183 -151 -163 -210 -248 -278 -16 -17 -27 -34 -38 -84 -75 -13 -0 -0 -0 -0 -0 -0 -0 -0 -0 -0 -0 -0
-0 -0 -0 -0 -0 -0 -0 -0 -0 -0 -0 -0 -0 -0 -0 -0 -0 -4 -239 -165 -198 -212 -267 -220 -17 -37 -32 -74 -136 -106 -64 -0 -0 -0 -0 -0 -0 -0 -0 -0 -0 -0 -0 -0
-0 -0 -0 -0 -0 -0 -0 -0 -0 -0 -0 -0 -0 -0 -0 -0 -0 -0 -334 -200 -147 -158 -208 -45 -28 -42 -41 -134 -137 -95 -0 -0 -0 -0 -0 -0 -0 -0 -0 -0 -0 -0 -0 -0
-0 -0 -0 -0 -0 -0 -0 -0 -0 -0 -0 -0 -0 -0 -0 -0 -0 -0 -244 -290 -201 -115 -87 -62 -48 -86 -80 -151 -104 -0 -0 -0 -0 -0 -0 -0 -0 -0 -0 -0 -0 -0 -0 -0
-0 -0 -0 -0 -0 -0 -0 -0 -0 -0 -0 -0 -0 -0 -0 -481 -451 -481 -376 -278 -292 -188 -131 -83 -74 -55 -163 -93 -153 -0 -0 -0 -0 -0 -0 -0 -0 -0 -0 -0 -0 -0 -0 -0
-0 -0 -0 -0 -0 -0 -0 -0 -18 -7 -0 -0 -0 -0 -511 -412 -256 -159 -360 -217 -55 -62 -53 -74 -139 -282 -145 -78 -70 -120 -0 -0 -0 -0 -0 -0 -0 -0 -0 -0 -0 -0 -0 -0
-0 -0 -0 -0 -0 -0 -0 -0 -0 -0 -0 -0 -281 -160 -442 -314 -165 -71 -305 -187 -66 -67 -78 -83 -124 -125 -53 -50 -55 -0 -0 -0 -0 -0 -0 -0 -0 -0 -0 -0 -0 -0 -0 -0
-0 -0 -0 -0 -0 -0 -0 -0 -0 -0 -0 -8 -70 -212 -325 -301 -189 -158 -305 -155 -72 -103 -122 -87 -73 -57 -36 -27 -66 -0 -0 -0 -0 -0 -0 -0 -0 -0 -0 -0 -0 -0 -0 -0
-0 -0 -0 -0 -0 -0 -0 -0 -0 -0 -0 -89 -99 -56 -247 -307 -269 -199 -197 -87 -76 -70 -63 -64 -55 -33 -34 -85 -0 -0 -0 -0 -0 -0 -0 -0 -0 -0 -0 -0 -0 -0 -0 -0
-0 -0 -0 -11 -0 -0 -0 -0 -0 -0 -0 -73 -220 -116 -78 -144 -194 -170 -167 -95 -77 -62 -87 -88 -67 -94 -135 -0 -0 -0 -0 -0 -0 -0 -0 -0 -0 -0 -0 -0 -0 -0 -0 -0
-0 -0 -0 -0 -0 -0 -0 -76 -43 -0 -0 -257 -256 -68 -114 -97 -107 -130 -152 -82 -60 -101 -94 -66 -86 -113 -0 -0 -0 -0 -0 -0 -0 -0 -0 -0 -0 -0 -0 -0 -0 -0 -0 -0
-0 -0 -0 -0 -0 -0 -0 -0 -0 -260 -257 -174 -157 -53 -61 -84 -124 -57 -62 -104 -95 -115 -136 -185 -71 -0 -0 -0 -0 -0 -0 -0 -0 -0 -0 -0 -0 -0 -0 -0 -0 -0 -0 -0
Wind_Speed
nan nan nan nan nan nan nan nan nan nan nan nan nan nan nan nan nan nan nan nan nan 7 8 5 10 14 18 18 28 34 40 39 30 25 26 28 31 33 nan nan 39 38 36 35
nan nan nan nan nan nan nan nan nan nan nan nan nan nan nan nan nan nan nan nan nan 17 10 7 12 18 16 23 23 32 38 37 29 29 30 32 nan 36 39 38 37 37 36 36
nan nan nan nan nan nan nan nan nan nan nan nan nan nan nan nan nan nan nan nan nan 20 17 14 19 20 22 27 30 31 34 35 32 37 39 38 39 41 40 37 37 36 37 nan
nan nan nan nan nan nan nan nan nan nan nan nan nan nan nan nan 19 14 20 18 16 20 22 17 20 22 22 25 29 31 34 38 37 41 45 44 43 46 42 40 37 nan nan nan
nan nan nan nan nan nan nan nan nan nan nan nan nan nan nan nan 22 nan 19 19 17 20 27 26 19 22 23 25 29 31 36 38 39 42 46 44 47 46 44 nan nan nan nan nan
nan nan nan nan nan nan nan nan nan nan nan nan nan nan nan nan nan 19 24 22 24 25 29 30 26 25 24 27 34 37 43 38 40 44 47 52 nan nan nan nan nan nan nan nan
nan nan nan nan nan nan nan nan nan nan nan nan nan nan nan nan nan nan nan 32 34 36 39 39 32 29 28 31 35 37 39 41 42 44 nan nan nan nan nan nan nan nan nan nan
nan nan nan nan nan nan nan nan nan nan nan nan nan nan nan nan 27 nan nan 44 43 43 34 29 28 30 29 33 38 34 38 43 nan nan nan nan nan nan nan nan nan nan nan nan
nan nan nan nan nan nan nan nan nan nan nan nan nan nan nan nan 28 nan nan 42 38 33 25 19 22 26 31 37 38 nan nan nan nan nan nan nan nan nan nan nan nan nan nan nan
nan nan nan nan nan nan nan nan nan nan nan nan nan nan nan nan nan 19 24 25 25 25 25 26 25 30 33 35 nan nan nan nan nan nan nan nan nan nan nan nan nan nan nan nan
nan nan nan nan nan nan nan nan nan nan nan nan nan nan nan nan nan 18 19 19 20 25 27 23 25 29 nan nan nan nan nan nan nan nan nan nan nan nan nan nan nan nan nan nan
nan nan nan nan nan nan nan nan nan nan nan nan nan nan nan nan nan nan 20 25 26 26 27 29 31 nan nan nan nan nan nan nan nan nan nan nan nan nan nan nan nan nan nan nan
nan nan nan nan nan nan nan nan nan nan nan nan nan nan nan nan nan nan 21 24 26 29 29 30 nan nan nan nan nan nan nan nan nan nan nan nan nan nan nan nan nan nan nan nan
nan nan nan nan nan nan nan nan nan nan nan nan nan nan nan nan nan nan 16 22 26 27 32 34 nan nan nan nan nan nan nan nan nan nan nan nan nan nan nan nan nan nan nan nan
nan nan nan nan nan nan nan nan nan nan nan nan nan nan nan nan nan nan 14 24 27 29 33 38 nan nan nan nan nan nan nan nan nan nan nan nan nan nan nan nan nan nan nan nan
nan nan nan nan nan nan nan nan nan nan nan nan nan nan nan nan nan nan nan 27 28 27 32 36 nan nan nan nan nan nan nan nan nan nan nan nan nan nan nan nan nan nan nan nan
nan nan nan nan nan nan nan nan nan nan nan nan nan nan nan nan nan nan nan 28 32 28 32 38 36 nan nan nan nan nan nan nan nan nan nan nan nan nan nan nan nan nan nan nan
nan nan nan nan nan nan nan nan nan nan nan nan nan nan nan nan nan nan nan 29 29 34 35 37 35 nan nan nan nan nan nan nan nan nan nan nan nan nan nan nan nan nan nan nan
nan nan nan nan nan nan nan nan nan nan nan nan nan nan nan nan nan nan nan 33 30 30 33 37 38 nan nan 47 nan nan nan nan nan nan nan nan nan nan nan nan nan nan nan nan
nan nan nan nan nan nan nan nan nan nan nan nan nan nan nan 45 49 nan 42 43 40 41 44 48 47 nan nan 47 nan nan nan nan nan nan nan nan nan nan nan nan nan nan nan nan
nan nan nan nan nan nan nan nan nan nan nan nan nan nan 38 31 34 nan 58 52 55 49 51 50 50 nan 49 49 nan nan nan nan nan nan nan nan nan nan nan nan nan nan nan nan
nan nan nan nan nan nan nan nan nan nan nan nan nan nan 32 34 33 39 45 53 53 59 60 57 53 52 48 nan nan nan nan nan nan nan nan nan nan nan nan nan nan nan nan nan
nan nan nan nan nan nan nan nan nan nan nan nan nan 37 41 46 43 44 41 45 48 54 55 55 56 52 48 nan nan nan nan nan nan nan nan nan nan nan nan nan nan nan nan nan
nan nan nan nan nan nan nan nan nan nan nan nan 40 41 40 44 46 51 47 43 45 49 50 49 52 53 nan nan nan nan nan nan nan nan nan nan nan nan nan nan nan nan nan nan
nan nan nan nan nan nan nan nan nan nan nan 40 45 45 44 45 41 44 48 38 43 46 47 51 nan nan nan nan nan nan nan nan nan nan nan nan nan nan nan nan nan nan nan nan
nan nan nan nan nan nan nan nan nan nan 47 39 46 47 45 43 43 43 44 42 44 42 nan nan nan nan nan nan nan nan nan nan nan nan nan nan nan nan nan nan nan nan nan nan
Wind_Direction
nan nan nan nan nan nan nan nan nan nan nan nan nan nan nan nan nan nan nan nan nan 312 294 325 342 332 331 335 342 337 335 335 335 331 325 316 313 310 nan nan 303 303 306 304
nan nan nan nan nan nan nan nan nan nan nan nan nan nan nan nan nan nan nan nan nan 300 281 277 309 307 318 335 326 325 327 332 330 327 324 317 nan 315 312 311 310 307 302 305
nan nan nan nan nan nan nan nan nan nan nan nan nan nan nan nan nan nan nan nan nan 304 301 296 301 293 318 329 316 316 319 324 323 325 321 317 316 318 315 314 309 304 303 nan
nan nan nan nan nan nan nan nan nan nan nan nan nan nan nan nan 219 226 247 277 302 302 279 285 296 296 311 308 307 305 310 320 319 320 324 324 325 323 317 313 310 nan nan nan
nan nan nan nan nan nan nan nan nan nan nan nan nan nan nan nan 224 nan 264 280 290 292 300 304 310 303 296 295 297 298 307 308 315 310 316 318 320 318 315 nan nan nan nan nan
nan nan nan nan nan nan nan nan nan nan nan nan nan nan nan nan nan 240 262 277 271 277 292 297 300 298 292 291 294 298 307 315 311 309 316 318 nan nan nan nan nan nan nan nan
nan nan nan nan nan nan nan nan nan nan nan nan nan nan nan nan nan nan nan 283 285 292 294 297 296 294 292 287 292 305 315 312 310 308 nan nan nan nan nan nan nan nan nan nan
nan nan nan nan nan nan nan nan nan nan nan nan nan nan nan nan 246 nan nan 286 297 304 300 296 292 300 296 290 290 310 306 306 nan nan nan nan nan nan nan nan nan nan nan nan
nan nan nan nan nan nan nan nan nan nan nan nan nan nan nan nan 257 nan nan 287 295 303 306 308 295 289 287 292 303 nan nan nan nan nan nan nan nan nan nan nan nan nan nan nan
nan nan nan nan nan nan nan nan nan nan nan nan nan nan nan nan nan 266 268 284 298 288 292 293 297 299 293 302 nan nan nan nan nan nan nan nan nan nan nan nan nan nan nan nan
nan nan nan nan nan nan nan nan nan nan nan nan nan nan nan nan nan 298 272 269 281 283 282 298 302 297 nan nan nan nan nan nan nan nan nan nan nan nan nan nan nan nan nan nan
nan nan nan nan nan nan nan nan nan nan nan nan nan nan nan nan nan nan 296 285 274 283 292 298 295 nan nan nan nan nan nan nan nan nan nan nan nan nan nan nan nan nan nan nan
nan nan nan nan nan nan nan nan nan nan nan nan nan nan nan nan nan nan 299 301 300 293 291 290 nan nan nan nan nan nan nan nan nan nan nan nan nan nan nan nan nan nan nan nan
nan nan nan nan nan nan nan nan nan nan nan nan nan nan nan nan nan nan 307 299 293 302 308 307 nan nan nan nan nan nan nan nan nan nan nan nan nan nan nan nan nan nan nan nan
nan nan nan nan nan nan nan nan nan nan nan nan nan nan nan nan nan nan 306 277 287 301 307 310 nan nan nan nan nan nan nan nan nan nan nan nan nan nan nan nan nan nan nan nan
nan nan nan nan nan nan nan nan nan nan nan nan nan nan nan nan nan nan nan 310 313 312 310 309 nan nan nan nan nan nan nan nan nan nan nan nan nan nan nan nan nan nan nan nan
nan nan nan nan nan nan nan nan nan nan nan nan nan nan nan nan nan nan nan 315 332 312 303 308 309 nan nan nan nan nan nan nan nan nan nan nan nan nan nan nan nan nan nan nan
nan nan nan nan nan nan nan nan nan nan nan nan nan nan nan nan nan nan nan 308 318 314 303 295 292 nan nan nan nan nan nan nan nan nan nan nan nan nan nan nan nan nan nan nan
nan nan nan nan nan nan nan nan nan nan nan nan nan nan nan nan nan nan nan 303 309 305 308 302 296 nan nan 308 nan nan nan nan nan nan nan nan nan nan nan nan nan nan nan nan
nan nan nan nan nan nan nan nan nan nan nan nan nan nan nan 271 269 nan 290 294 289 287 291 293 292 nan nan 298 nan nan nan nan nan nan nan nan nan nan nan nan nan nan nan nan
nan nan nan nan nan nan nan nan nan nan nan nan nan nan 270 275 274 nan 275 269 283 286 282 283 290 nan 304 307 nan nan nan nan nan nan nan nan nan nan nan nan nan nan nan nan
nan nan nan nan nan nan nan nan nan nan nan nan nan nan 276 254 262 273 273 275 273 275 279 284 285 293 296 nan nan nan nan nan nan nan nan nan nan nan nan nan nan nan nan nan
nan nan nan nan nan nan nan nan nan nan nan nan nan 253 262 261 261 273 282 276 278 281 282 285 291 296 299 nan nan nan nan nan nan nan nan nan nan nan nan nan nan nan nan nan
nan nan nan nan nan nan nan nan nan nan nan nan 246 255 261 264 273 274 281 281 276 278 280 288 292 295 nan nan nan nan nan nan nan nan nan nan nan nan nan nan nan nan nan nan
nan nan nan nan nan nan nan nan nan nan nan 241 248 254 260 269 271 275 280 276 273 275 286 287 nan nan nan nan nan nan nan nan nan nan nan nan nan nan nan nan nan nan nan nan
nan nan nan nan nan nan nan nan nan nan 214 236 252 254 263 271 273 269 266 264 266 268 nan nan nan nan nan nan nan nan nan nan nan nan nan nan nan nan nan nan nan nan nan nan